Time,TemperatureF,DewpointF,PressureIn,WindDirection,WindDirectionDegrees,WindSpeedMPH,WindSpeedGustMPH,Humidity,HourlyPrecipIn,Conditions,Clouds,dailyrainin,SolarRadiationWatts/m^2,SoftwareType,DateUTC
2013-08-09 00:02:00,61.0,57.0,-100.00,WNW,287,0.0,1.0,87,0.00,,,0.00,0.000000,,2013-08-09 05:02:00,
2013-08-09 00:33:00,59.0,57.0,-100.00,WNW,287,0.0,0.0,94,0.00,,,0.00,0.000000,,2013-08-09 05:33:00,
2013-08-09 00:43:00,59.0,57.0,-100.00,WNW,287,0.0,0.0,94,0.00,,,0.00,0.000000,,2013-08-09 05:43:00,
2013-08-09 00:52:00,59.0,57.0,-100.00,WNW,287,0.0,0.0,94,0.00,,,0.00,0.000000,,2013-08-09 05:52:00,
2013-08-09 01:01:00,59.0,57.0,-100.00,WNW,287,0.0,0.0,94,0.00,,,0.00,0.000000,,2013-08-09 06:01:00,
2013-08-09 01:32:00,59.0,57.0,-100.00,WNW,287,0.0,0.0,94,0.00,,,0.00,0.000000,,2013-08-09 06:32:00,
2013-08-09 01:43:00,59.0,57.0,-100.00,WNW,287,0.0,0.0,94,0.00,,,0.00,0.000000,,2013-08-09 06:43:00,
2013-08-09 01:52:00,59.0,57.0,-100.00,WNW,287,0.0,0.0,94,0.00,,,0.00,0.000000,,2013-08-09 06:52:00,
2013-08-09 02:01:00,59.0,57.0,-100.00,WNW,287,0.0,0.0,94,0.00,,,0.00,0.000000,,2013-08-09 07:01:00,
2013-08-09 02:33:00,60.0,58.0,-100.00,WNW,287,0.0,0.0,94,0.00,,,0.00,0.000000,,2013-08-09 07:33:00,
2013-08-09 02:43:00,60.0,58.0,-100.00,WNW,287,0.0,0.0,94,0.00,,,0.00,0.000000,,2013-08-09 07:43:00,
2013-08-09 02:53:00,60.0,58.0,-100.00,WNW,287,0.0,0.0,94,0.00,,,0.00,0.000000,,2013-08-09 07:53:00,
2013-08-09 03:02:00,60.0,58.0,-100.00,WNW,287,0.0,0.0,94,0.00,,,0.00,0.000000,,2013-08-09 08:02:00,
2013-08-09 03:32:00,59.0,57.0,-100.00,NW,311,0.0,2.0,94,0.00,,,0.00,0.000000,,2013-08-09 08:32:00,
2013-08-09 03:43:00,59.0,57.0,-100.00,NW,311,0.0,2.0,94,0.00,,,0.00,0.000000,,2013-08-09 08:43:00,
2013-08-09 03:53:00,59.0,57.0,-100.00,NW,311,0.0,2.0,94,0.00,,,0.00,0.000000,,2013-08-09 08:53:00,
2013-08-09 04:02:00,59.0,57.0,-100.00,NW,311,0.0,2.0,94,0.00,,,0.00,0.000000,,2013-08-09 09:02:00,
2013-08-09 04:32:00,57.0,57.0,-100.00,NW,312,0.0,0.0,99,0.00,,,0.00,0.000000,,2013-08-09 09:32:00,
2013-08-09 04:43:00,57.0,57.0,-100.00,NW,312,0.0,0.0,99,0.00,,,0.00,0.000000,,2013-08-09 09:43:00,
2013-08-09 04:52:00,57.0,57.0,-100.00,NW,312,0.0,0.0,99,0.00,,,0.00,0.000000,,2013-08-09 09:52:00,
2013-08-09 05:01:00,57.0,57.0,-100.00,NW,312,0.0,0.0,99,0.00,,,0.00,0.000000,,2013-08-09 10:01:00,
2013-08-09 05:32:00,56.0,56.0,-100.00,NW,311,0.0,1.0,99,0.00,,,0.00,0.000000,,2013-08-09 10:32:00,
2013-08-09 05:43:00,56.0,56.0,-100.00,NW,311,0.0,1.0,99,0.00,,,0.00,0.000000,,2013-08-09 10:43:00,
2013-08-09 05:53:00,56.0,56.0,-100.00,NW,311,0.0,1.0,99,0.00,,,0.00,0.000000,,2013-08-09 10:53:00,
2013-08-09 06:02:00,56.0,56.0,-100.00,NW,311,0.0,1.0,99,0.00,,,0.00,0.000000,,2013-08-09 11:02:00,
2013-08-09 06:33:00,55.0,55.0,-100.00,NW,320,1.0,3.0,100,0.00,,,0.00,1.000000,,2013-08-09 11:33:00,
2013-08-09 06:43:00,55.0,55.0,-100.00,NW,320,1.0,3.0,100,0.00,,,0.00,1.000000,,2013-08-09 11:43:00,
2013-08-09 06:53:00,55.0,55.0,-100.00,NW,320,1.0,3.0,100,0.00,,,0.00,1.000000,,2013-08-09 11:53:00,
2013-08-09 07:02:00,55.0,55.0,-100.00,NW,320,1.0,3.0,100,0.00,,,0.00,1.000000,,2013-08-09 12:02:00,
2013-08-09 07:32:00,57.0,57.0,-100.00,NW,307,1.0,2.0,100,0.00,,,0.00,32.000000,,2013-08-09 12:32:00,
2013-08-09 07:43:00,57.0,57.0,-100.00,NW,307,1.0,2.0,100,0.00,,,0.00,32.000000,,2013-08-09 12:43:00,
2013-08-09 07:52:00,57.0,57.0,-100.00,NW,307,1.0,2.0,100,0.00,,,0.00,32.000000,,2013-08-09 12:52:00,
2013-08-09 08:01:00,57.0,57.0,-100.00,NW,307,1.0,2.0,100,0.00,,,0.00,32.000000,,2013-08-09 13:01:00,
2013-08-09 08:32:00,65.0,61.0,-100.00,East,90,3.0,7.0,87,0.00,,,0.00,169.000000,,2013-08-09 13:32:00,
2013-08-09 08:43:00,65.0,61.0,-100.00,East,90,3.0,7.0,87,0.00,,,0.00,169.000000,,2013-08-09 13:43:00,
2013-08-09 08:52:00,65.0,61.0,-100.00,East,90,3.0,7.0,87,0.00,,,0.00,169.000000,,2013-08-09 13:52:00,
2013-08-09 09:02:00,65.0,61.0,-100.00,East,90,3.0,7.0,87,0.00,,,0.00,169.000000,,2013-08-09 14:02:00,
2013-08-09 09:33:00,67.0,61.0,-100.00,SSE,148,5.0,11.0,80,0.00,,,0.00,299.000000,,2013-08-09 14:33:00,
2013-08-09 09:43:00,67.0,61.0,-100.00,SSE,148,5.0,11.0,80,0.00,,,0.00,299.000000,,2013-08-09 14:43:00,
2013-08-09 09:53:00,67.0,61.0,-100.00,SSE,148,5.0,11.0,80,0.00,,,0.00,299.000000,,2013-08-09 14:53:00,
2013-08-09 10:02:00,67.0,61.0,-100.00,SSE,148,5.0,11.0,80,0.00,,,0.00,299.000000,,2013-08-09 15:02:00,
2013-08-09 10:33:00,70.0,59.0,-100.00,ESE,110,4.0,10.0,68,0.00,,,0.00,505.000000,,2013-08-09 15:33:00,
2013-08-09 10:44:00,70.0,59.0,-100.00,ESE,110,4.0,10.0,68,0.00,,,0.00,505.000000,,2013-08-09 15:44:00,
2013-08-09 10:53:00,70.0,59.0,-100.00,ESE,110,4.0,10.0,68,0.00,,,0.00,505.000000,,2013-08-09 15:53:00,
2013-08-09 11:01:00,70.0,59.0,-100.00,ESE,110,4.0,10.0,68,0.00,,,0.00,505.000000,,2013-08-09 16:01:00,
2013-08-09 11:32:00,73.0,56.0,-100.00,ESE,119,4.0,10.0,55,0.00,,,0.00,603.000000,,2013-08-09 16:32:00,
2013-08-09 11:43:00,73.0,56.0,-100.00,ESE,119,4.0,10.0,55,0.00,,,0.00,603.000000,,2013-08-09 16:43:00,
2013-08-09 11:53:00,73.0,56.0,-100.00,ESE,119,4.0,10.0,55,0.00,,,0.00,603.000000,,2013-08-09 16:53:00,
2013-08-09 12:02:00,73.0,56.0,-100.00,ESE,119,4.0,10.0,55,0.00,,,0.00,603.000000,,2013-08-09 17:02:00,
2013-08-09 12:33:00,74.0,52.0,-100.00,SE,142,7.0,18.0,46,0.00,,,0.00,687.000000,,2013-08-09 17:33:00,
2013-08-09 12:43:00,74.0,52.0,-100.00,SE,142,7.0,18.0,46,0.00,,,0.00,687.000000,,2013-08-09 17:43:00,
2013-08-09 12:52:00,74.0,52.0,-100.00,SE,142,7.0,18.0,46,0.00,,,0.00,687.000000,,2013-08-09 17:52:00,
2013-08-09 13:01:00,74.0,52.0,-100.00,SE,142,7.0,18.0,46,0.00,,,0.00,687.000000,,2013-08-09 18:01:00,
2013-08-09 13:32:00,76.0,52.0,-100.00,ESE,111,6.0,15.0,43,0.00,,,0.00,784.000000,,2013-08-09 18:32:00,
2013-08-09 13:43:00,76.0,52.0,-100.00,ESE,111,6.0,15.0,43,0.00,,,0.00,784.000000,,2013-08-09 18:43:00,
2013-08-09 13:53:00,76.0,52.0,-100.00,ESE,111,6.0,15.0,43,0.00,,,0.00,784.000000,,2013-08-09 18:53:00,
2013-08-09 14:02:00,76.0,52.0,-100.00,ESE,111,6.0,15.0,43,0.00,,,0.00,784.000000,,2013-08-09 19:02:00,
2013-08-09 14:32:00,76.0,50.0,-100.00,SE,136,7.0,15.0,40,0.00,,,0.00,803.000000,,2013-08-09 19:32:00,
2013-08-09 14:43:00,76.0,50.0,-100.00,SE,136,7.0,15.0,40,0.00,,,0.00,803.000000,,2013-08-09 19:43:00,
2013-08-09 14:52:00,76.0,50.0,-100.00,SE,136,7.0,15.0,40,0.00,,,0.00,803.000000,,2013-08-09 19:52:00,
2013-08-09 15:02:00,76.0,50.0,-100.00,SE,136,7.0,15.0,40,0.00,,,0.00,803.000000,,2013-08-09 20:02:00,
2013-08-09 15:32:00,77.0,49.0,-100.00,SE,135,7.0,14.0,37,0.00,,,0.00,785.000000,,2013-08-09 20:32:00,
2013-08-09 15:43:00,77.0,49.0,-100.00,SE,135,7.0,14.0,37,0.00,,,0.00,785.000000,,2013-08-09 20:43:00,
2013-08-09 15:52:00,77.0,49.0,-100.00,SE,135,7.0,14.0,37,0.00,,,0.00,785.000000,,2013-08-09 20:52:00,
2013-08-09 16:01:00,77.0,49.0,-100.00,SE,135,7.0,14.0,37,0.00,,,0.00,785.000000,,2013-08-09 21:01:00,
2013-08-09 16:33:00,77.0,48.0,-100.00,ESE,103,6.0,15.0,36,0.00,,,0.00,711.000000,,2013-08-09 21:33:00,
2013-08-09 16:43:00,77.0,48.0,-100.00,ESE,103,6.0,15.0,36,0.00,,,0.00,711.000000,,2013-08-09 21:43:00,
2013-08-09 16:52:00,77.0,48.0,-100.00,ESE,103,6.0,15.0,36,0.00,,,0.00,711.000000,,2013-08-09 21:52:00,
2013-08-09 17:01:00,77.0,48.0,-100.00,ESE,103,6.0,15.0,36,0.00,,,0.00,711.000000,,2013-08-09 22:01:00,
2013-08-09 17:32:00,77.0,49.0,-100.00,ESE,118,5.0,12.0,37,0.00,,,0.00,534.000000,,2013-08-09 22:32:00,
2013-08-09 17:43:00,77.0,49.0,-100.00,ESE,118,5.0,12.0,37,0.00,,,0.00,534.000000,,2013-08-09 22:43:00,
2013-08-09 17:52:00,77.0,49.0,-100.00,ESE,118,5.0,12.0,37,0.00,,,0.00,534.000000,,2013-08-09 22:52:00,
2013-08-09 18:01:00,77.0,49.0,-100.00,ESE,118,5.0,12.0,37,0.00,,,0.00,534.000000,,2013-08-09 23:01:00,
2013-08-09 18:32:00,75.0,48.0,-100.00,SE,142,6.0,13.0,39,0.00,,,-99.99,343.000000,,2013-08-09 23:32:00,
2013-08-09 18:43:00,75.0,48.0,-100.00,SE,142,6.0,13.0,39,0.00,,,-99.99,343.000000,,2013-08-09 23:43:00,
2013-08-09 18:52:00,75.0,48.0,-100.00,SE,142,6.0,13.0,39,0.00,,,-99.99,343.000000,,2013-08-09 23:52:00,
2013-08-09 19:01:00,75.0,48.0,-100.00,SE,142,6.0,13.0,39,0.00,,,-99.99,343.000000,,2013-08-10 00:01:00,
2013-08-09 19:33:00,73.0,49.0,-100.00,SSE,155,7.0,14.0,43,0.00,,,0.00,204.000000,,2013-08-10 00:33:00,
2013-08-09 19:43:00,73.0,49.0,-100.00,SSE,155,7.0,14.0,43,0.00,,,0.00,204.000000,,2013-08-10 00:43:00,
2013-08-09 19:53:00,73.0,49.0,-100.00,SSE,155,7.0,14.0,43,0.00,,,0.00,204.000000,,2013-08-10 00:53:00,
2013-08-09 20:01:00,73.0,49.0,-100.00,SSE,155,7.0,14.0,43,0.00,,,0.00,204.000000,,2013-08-10 01:01:00,
2013-08-09 20:32:00,68.0,48.0,-100.00,SE,146,2.0,12.0,49,0.00,,,0.00,82.000000,,2013-08-10 01:32:00,
2013-08-09 20:43:00,68.0,48.0,-100.00,SE,146,2.0,12.0,49,0.00,,,0.00,82.000000,,2013-08-10 01:43:00,
2013-08-09 20:52:00,68.0,48.0,-100.00,SE,146,2.0,12.0,49,0.00,,,0.00,82.000000,,2013-08-10 01:52:00,
2013-08-09 21:03:00,68.0,48.0,-100.00,SE,146,2.0,12.0,49,0.00,,,0.00,82.000000,,2013-08-10 02:03:00,
2013-08-09 21:32:00,64.0,51.0,-100.00,SE,128,0.0,5.0,63,0.00,,,0.00,2.000000,,2013-08-10 02:32:00,
2013-08-09 21:42:00,64.0,51.0,-100.00,SE,128,0.0,5.0,63,0.00,,,0.00,2.000000,,2013-08-10 02:42:00,
2013-08-09 21:52:00,64.0,51.0,-100.00,SE,128,0.0,5.0,63,0.00,,,0.00,2.000000,,2013-08-10 02:52:00,
2013-08-09 22:01:00,64.0,51.0,-100.00,SE,128,0.0,5.0,63,0.00,,,0.00,2.000000,,2013-08-10 03:01:00,
2013-08-09 22:32:00,61.0,54.0,-100.00,South,169,0.0,2.0,78,0.00,,,0.00,0.000000,,2013-08-10 03:32:00,
2013-08-09 22:42:00,61.0,54.0,-100.00,South,169,0.0,2.0,78,0.00,,,0.00,0.000000,,2013-08-10 03:42:00,
2013-08-09 22:52:00,61.0,54.0,-100.00,South,169,0.0,2.0,78,0.00,,,0.00,0.000000,,2013-08-10 03:52:00,
2013-08-09 23:02:00,61.0,54.0,-100.00,South,169,0.0,2.0,78,0.00,,,0.00,0.000000,,2013-08-10 04:02:00,
2013-08-09 23:32:00,62.0,55.0,-100.00,SSW,200,0.0,3.0,78,0.00,,,0.00,0.000000,,2013-08-10 04:32:00,
2013-08-09 23:43:00,62.0,55.0,-100.00,SSW,200,0.0,3.0,78,0.00,,,0.00,0.000000,,2013-08-10 04:43:00,
2013-08-09 23:53:00,62.0,55.0,-100.00,SSW,200,0.0,3.0,78,0.00,,,0.00,0.000000,,2013-08-10 04:53:00,